Albuquerque, NM

5:14 PM MDT on September 24, 2017 (GMT -0600)
Albuquerque International Sunport

Weather History for KABQ - August, 2014

Change the Weather History Date:

Sunday, August 10, 2014

  Actual Average Record
Temperature  
Mean Temperature 76 °F 77 °F  
Max Temperature 88 °F 88 °F 100 °F (1937)
Min Temperature 64 °F 66 °F 51 °F (1915)
Degree Days  
Heating Degree Days 0 0  
Month to date heating degree days 0 0  
Since 1 June heating degree days 0 4  
Since 1 July heating degree days 0 0  
Cooling Degree Days 11 12  
Month to date cooling degree days 84 120  
Year to date cooling degree days 1021 931  
Since 1 June cooling degree days 909 833  
Growing Degree Days 26 (Base 50)    
Moisture  
Dew Point 49 °F    
Average Humidity 41    
Maximum Humidity 56    
Minimum Humidity 26    
Precipitation  
Precipitation 0.01 in 0.06 in 1.00 in (1963)
Month to date precipitation 1.13 0.58  
Year to date precipitation 5.74 5.28  
Snow  
Snow 0.00 in - - ()
Month to date snowfall 0.0  
Since 1 June snowfall 0.0  
Since 1 July snowfall 0.0  
Snow Depth 0.00 in    
Sea Level Pressure  
Sea Level Pressure 30.04 in    
Wind  
Wind Speed 12 mph (ENE)    
Max Wind Speed 28 mph    
Max Gust Speed 32 mph    
Visibility 10 miles    
Events Rain , Thunderstorm    
T = Trace of Precipitation, MM = Missing Value Source: NWS Daily Summary

Daily Weather History Graph

Daily Weather History Graph

Search for Another Location

Airport or City:

Trip Planner

Search our weather history database for the weather conditions in past years. The results will help you decide how hot, cold, wet, or windy it might be!

Date:

Astronomy

Aug. 10, 2014 Rise Set
Actual Time 6:22 AM MDT 8:00 PM MDT
Civil Twilight 5:55 AM MDT 8:27 PM MDT
Nautical Twilight 5:22 AM MDT 9:00 PM MDT
Astronomical Twilight 4:48 AM MDT 9:34 PM MDT
Moon 7:52 PM MDT (8/10) 6:16 AM MDT (8/10)
Length of Visible Light 14h 31m
Length of Day
13h 37m
Full, 100% of the Moon is Illuminated
Aug 10
Full
Aug 10
Full
Aug 17
Last Quarter
Aug 25
New
Sep 2
First Quarter

Hourly Weather History & Observations

Time (MDT) Temp. Dew Point Humidity Pressure Visibility Wind Dir Wind Speed Gust Speed Precip Events Conditions
12:52 AM 70.0 °F 48.0 °F 46% 29.96 in 10.0 mi North 4.6 mph - N/A   Mostly Cloudy
1:52 AM 70.0 °F 48.9 °F 47% 29.95 in 10.0 mi Calm Calm - N/A   Mostly Cloudy
2:52 AM 68.0 °F 50.0 °F 52% 29.96 in 10.0 mi ENE 5.8 mph - N/A   Scattered Clouds
3:52 AM 68.0 °F 48.0 °F 49% 29.95 in 10.0 mi NE 8.1 mph - N/A   Scattered Clouds
4:52 AM 66.9 °F 48.0 °F 51% 29.97 in 10.0 mi East 8.1 mph - N/A   Scattered Clouds
5:52 AM 64.9 °F 48.9 °F 56% 29.98 in 10.0 mi Calm Calm - N/A   Scattered Clouds
6:52 AM 64.9 °F 48.9 °F 56% 30.01 in 10.0 mi North 3.5 mph - N/A   Scattered Clouds
7:52 AM 68.0 °F 48.9 °F 50% 30.04 in 10.0 mi NE 3.5 mph - N/A   Partly Cloudy
8:52 AM 75.0 °F 46.0 °F 36% 30.03 in 10.0 mi East 17.3 mph 23.0 mph N/A   Partly Cloudy
9:52 AM 78.1 °F 48.0 °F 35% 30.04 in 10.0 mi East 18.4 mph - N/A   Partly Cloudy
10:52 AM 81.0 °F 48.0 °F 31% 30.04 in 10.0 mi East 19.6 mph 26.5 mph N/A   Partly Cloudy
11:52 AM 82.0 °F 48.0 °F 30% 30.04 in 10.0 mi SE 9.2 mph 20.7 mph N/A   Partly Cloudy
12:52 PM 84.0 °F 48.0 °F 28% 30.03 in 10.0 mi East 9.2 mph 17.3 mph N/A   Scattered Clouds
1:52 PM 86.0 °F 48.9 °F 28% 30.00 in 10.0 mi ESE 16.1 mph 20.7 mph N/A   Scattered Clouds
2:52 PM 87.1 °F 48.9 °F 27% 29.99 in 10.0 mi SE 10.4 mph 20.7 mph N/A   Scattered Clouds
3:52 PM 88.0 °F 48.9 °F 26% 29.96 in 10.0 mi SSE 19.6 mph 24.2 mph N/A   Scattered Clouds
4:52 PM 87.1 °F 48.9 °F 27% 29.95 in 10.0 mi SSE 17.3 mph 23.0 mph N/A   Scattered Clouds
5:52 PM 84.9 °F 51.1 °F 31% 29.96 in 10.0 mi SE 15.0 mph - N/A   Scattered Clouds
6:27 PM 84.0 °F 48.9 °F 29% 30.20 in 10.0 mi East 16.1 mph - N/A Thunderstorm Thunderstorm
6:52 PM 75.9 °F 48.9 °F 38% 30.01 in 10.0 mi North 13.8 mph 24.2 mph N/A Thunderstorm Thunderstorm
7:04 PM 75.9 °F 48.9 °F 38% 30.23 in 10.0 mi North 16.1 mph 26.5 mph N/A Thunderstorm Thunderstorm
7:52 PM 72.0 °F 48.9 °F 44% 30.05 in 10.0 mi NNE 21.9 mph - N/A Thunderstorm Thunderstorm
8:14 PM 75.9 °F 48.9 °F 38% 30.27 in 10.0 mi North 12.7 mph - N/A   Mostly Cloudy
8:52 PM 73.9 °F 46.0 °F 37% 30.03 in 10.0 mi NNW 10.4 mph - N/A   Mostly Cloudy
9:24 PM 75.0 °F 45.0 °F 34% 30.30 in 10.0 mi East 4.6 mph - N/A Thunderstorm Thunderstorm
9:42 PM 73.9 °F 48.9 °F 41% 30.32 in 10.0 mi East 10.4 mph - N/A   Mostly Cloudy
9:52 PM 75.9 °F 48.0 °F 37% 30.07 in 10.0 mi ENE 11.5 mph - N/A   Mostly Cloudy
10:52 PM 72.0 °F 54.0 °F 53% 30.09 in 10.0 mi NNE 10.4 mph - 0.00 in Rain Light Rain
11:52 PM 70.0 °F 55.0 °F 59% 30.09 in 10.0 mi ENE 9.2 mph - 0.01 in   Overcast